{"data":{"norad_id":55611,"epoch":"2026-05-24T18:56:42.532224Z","epoch_age_seconds":93475,"freshness":"FRESH","line1":"1 55611U 23020AU  26144.78938116  .00000184  00000+0  16204-4 0  9994","line2":"2 55611  43.0028 284.8017 0001651 264.5947  95.4716 15.27579115180674","mean_motion":15.27579115,"eccentricity":0.0001651,"inclination_deg":43.0028,"raan_deg":284.8017,"arg_perigee_deg":264.5947,"mean_anomaly_deg":95.4716,"bstar":1.6204e-5,"rev_number":18067,"period_min":94.26680332691,"perigee_km":481.91896378734,"apogee_km":484.18452831128,"semimajor_km":6861.1887460493,"source":"CELESTRAK","updated_at":"2026-05-25T13:38:17.843725Z"}}